Time,TemperatureF,DewpointF,PressureIn,WindDirection,WindDirectionDegrees,WindSpeedMPH,WindSpeedGustMPH,Humidity,HourlyPrecipIn,Conditions,Clouds,dailyrainin,SolarRadiationWatts/m^2,SoftwareType,DateUTC
2013-01-28 00:21:00,32.0,32.0,-100.00,SE,140,6.0,9.0,98,0.00,,,1.00,0.000000,,2013-01-28 07:21:00,
2013-01-28 00:31:00,32.0,32.0,-100.00,SE,140,6.0,9.0,98,0.00,,,1.00,0.000000,,2013-01-28 07:31:00,
2013-01-28 00:41:00,32.0,32.0,-100.00,SE,140,6.0,9.0,98,0.00,,,1.00,0.000000,,2013-01-28 07:41:00,
2013-01-28 00:51:00,32.0,32.0,-100.00,SE,140,6.0,9.0,98,0.00,,,1.00,0.000000,,2013-01-28 07:51:00,
2013-01-28 01:21:00,31.0,31.0,-100.00,South,174,5.0,13.0,98,0.00,,,1.00,0.000000,,2013-01-28 08:21:00,
2013-01-28 01:32:00,31.0,31.0,-100.00,South,174,5.0,13.0,98,0.00,,,1.00,0.000000,,2013-01-28 08:32:00,
2013-01-28 01:42:00,31.0,31.0,-100.00,South,174,5.0,13.0,98,0.00,,,1.00,0.000000,,2013-01-28 08:42:00,
2013-01-28 01:52:00,31.0,31.0,-100.00,South,174,5.0,13.0,98,0.00,,,1.00,0.000000,,2013-01-28 08:52:00,
2013-01-28 02:21:00,31.0,31.0,-100.00,SSE,150,5.0,13.0,98,0.00,,,1.00,0.000000,,2013-01-28 09:21:00,
2013-01-28 02:32:00,31.0,31.0,-100.00,SSE,150,5.0,13.0,98,0.00,,,1.00,0.000000,,2013-01-28 09:32:00,
2013-01-28 02:41:00,31.0,31.0,-100.00,SSE,150,5.0,13.0,98,0.00,,,1.00,0.000000,,2013-01-28 09:41:00,
2013-01-28 02:51:00,31.0,31.0,-100.00,SSE,150,5.0,13.0,98,0.00,,,1.00,0.000000,,2013-01-28 09:51:00,
2013-01-28 04:22:00,30.0,29.0,-100.00,South,173,4.0,7.0,98,-99.99,,,1.00,0.000000,,2013-01-28 11:22:00,
2013-01-28 04:32:00,30.0,29.0,-100.00,South,173,4.0,7.0,98,-99.99,,,1.00,0.000000,,2013-01-28 11:32:00,
2013-01-28 04:42:00,30.0,29.0,-100.00,South,173,4.0,7.0,98,-99.99,,,1.00,0.000000,,2013-01-28 11:42:00,
2013-01-28 04:52:00,30.0,29.0,-100.00,South,173,4.0,7.0,98,-99.99,,,1.00,0.000000,,2013-01-28 11:52:00,
2013-01-28 05:23:00,30.0,29.0,-100.00,SE,145,5.0,7.0,98,0.00,,,1.00,0.000000,,2013-01-28 12:23:00,
2013-01-28 05:32:00,30.0,29.0,-100.00,SE,145,5.0,7.0,98,0.00,,,1.00,0.000000,,2013-01-28 12:32:00,
2013-01-28 05:42:00,30.0,29.0,-100.00,SE,145,5.0,7.0,98,0.00,,,1.00,0.000000,,2013-01-28 12:42:00,
2013-01-28 05:52:00,30.0,29.0,-100.00,SE,145,5.0,7.0,98,0.00,,,1.00,0.000000,,2013-01-28 12:52:00,
2013-01-28 06:22:00,30.0,29.0,-100.00,WSW,237,7.0,16.0,98,0.00,,,-99.99,0.000000,,2013-01-28 13:22:00,
2013-01-28 06:33:00,30.0,29.0,-100.00,WSW,237,7.0,16.0,98,0.00,,,-99.99,0.000000,,2013-01-28 13:33:00,
2013-01-28 06:42:00,30.0,29.0,-100.00,WSW,237,7.0,16.0,98,0.00,,,-99.99,0.000000,,2013-01-28 13:42:00,
2013-01-28 06:52:00,30.0,29.0,-100.00,WSW,237,7.0,16.0,98,0.00,,,-99.99,0.000000,,2013-01-28 13:52:00,
2013-01-28 07:22:00,29.0,29.0,-100.00,SW,234,5.0,14.0,98,0.00,,,1.00,0.000000,,2013-01-28 14:22:00,
2013-01-28 07:32:00,29.0,29.0,-100.00,SW,234,5.0,14.0,98,0.00,,,1.00,0.000000,,2013-01-28 14:32:00,
2013-01-28 07:42:00,29.0,29.0,-100.00,SW,234,5.0,14.0,98,0.00,,,1.00,0.000000,,2013-01-28 14:42:00,
2013-01-28 07:52:00,29.0,29.0,-100.00,SW,234,5.0,14.0,98,0.00,,,1.00,0.000000,,2013-01-28 14:52:00,
2013-01-28 08:23:00,29.0,28.0,-100.00,WSW,245,11.0,16.0,97,0.00,,,1.00,1.000000,,2013-01-28 15:23:00,
2013-01-28 08:33:00,29.0,28.0,-100.00,WSW,245,11.0,16.0,97,0.00,,,1.00,1.000000,,2013-01-28 15:33:00,
2013-01-28 08:42:00,29.0,28.0,-100.00,WSW,245,11.0,16.0,97,0.00,,,1.00,1.000000,,2013-01-28 15:42:00,
2013-01-28 08:52:00,29.0,28.0,-100.00,WSW,245,11.0,16.0,97,0.00,,,1.00,1.000000,,2013-01-28 15:52:00,
2013-01-28 09:22:00,29.0,27.0,-100.00,WSW,246,8.0,20.0,92,0.00,,,0.99,21.000000,,2013-01-28 16:22:00,
2013-01-28 09:32:00,29.0,27.0,-100.00,WSW,246,8.0,20.0,92,0.00,,,0.99,21.000000,,2013-01-28 16:32:00,
2013-01-28 09:42:00,29.0,27.0,-100.00,WSW,246,8.0,20.0,92,0.00,,,0.99,21.000000,,2013-01-28 16:42:00,
2013-01-28 09:52:00,29.0,27.0,-100.00,WSW,246,8.0,20.0,92,0.00,,,0.99,21.000000,,2013-01-28 16:52:00,
2013-01-28 10:22:00,29.0,27.0,-100.00,SW,229,6.0,15.0,94,0.00,,,0.96,34.000000,,2013-01-28 17:22:00,
2013-01-28 10:32:00,29.0,27.0,-100.00,SW,229,6.0,15.0,94,0.00,,,0.96,34.000000,,2013-01-28 17:32:00,
2013-01-28 10:42:00,29.0,27.0,-100.00,SW,229,6.0,15.0,94,0.00,,,0.96,34.000000,,2013-01-28 17:42:00,
2013-01-28 10:52:00,29.0,27.0,-100.00,SW,229,6.0,15.0,94,0.00,,,0.96,34.000000,,2013-01-28 17:52:00,
2013-01-28 11:23:00,29.0,27.0,-100.00,WSW,238,6.0,14.0,92,0.00,,,0.89,46.000000,,2013-01-28 18:23:00,
2013-01-28 11:33:00,29.0,27.0,-100.00,WSW,238,6.0,14.0,92,0.00,,,0.89,46.000000,,2013-01-28 18:33:00,
2013-01-28 11:42:00,29.0,27.0,-100.00,WSW,238,6.0,14.0,92,0.00,,,0.89,46.000000,,2013-01-28 18:42:00,
2013-01-28 11:52:00,29.0,27.0,-100.00,WSW,238,6.0,14.0,92,0.00,,,0.89,46.000000,,2013-01-28 18:52:00,
2013-01-28 12:22:00,29.0,27.0,-100.00,SW,233,7.0,14.0,91,0.00,,,0.79,51.000000,,2013-01-28 19:22:00,
2013-01-28 12:32:00,29.0,27.0,-100.00,SW,233,7.0,14.0,91,0.00,,,0.79,51.000000,,2013-01-28 19:32:00,
2013-01-28 12:42:00,29.0,27.0,-100.00,SW,233,7.0,14.0,91,0.00,,,0.79,51.000000,,2013-01-28 19:42:00,
2013-01-28 12:52:00,29.0,27.0,-100.00,SW,233,7.0,14.0,91,0.00,,,0.79,51.000000,,2013-01-28 19:52:00,
2013-01-28 13:22:00,29.0,27.0,-100.00,South,190,5.0,13.0,91,0.00,,,0.59,42.000000,,2013-01-28 20:22:00,
2013-01-28 13:33:00,29.0,27.0,-100.00,South,190,5.0,13.0,91,0.00,,,0.59,42.000000,,2013-01-28 20:33:00,
2013-01-28 13:42:00,29.0,27.0,-100.00,South,190,5.0,13.0,91,0.00,,,0.59,42.000000,,2013-01-28 20:42:00,
2013-01-28 13:52:00,29.0,27.0,-100.00,South,190,5.0,13.0,91,0.00,,,0.59,42.000000,,2013-01-28 20:52:00,
2013-01-28 14:22:00,30.0,25.0,-100.00,WSW,253,12.0,23.0,80,0.05,,,0.36,253.000000,,2013-01-28 21:22:00,
2013-01-28 14:33:00,30.0,25.0,-100.00,WSW,253,12.0,23.0,80,0.05,,,0.36,253.000000,,2013-01-28 21:33:00,
2013-01-28 14:42:00,30.0,25.0,-100.00,WSW,253,12.0,23.0,80,0.05,,,0.36,253.000000,,2013-01-28 21:42:00,
2013-01-28 14:52:00,30.0,25.0,-100.00,WSW,253,12.0,23.0,80,0.05,,,0.36,253.000000,,2013-01-28 21:52:00,
2013-01-28 15:22:00,31.0,23.0,-100.00,WSW,240,11.0,24.0,72,0.04,,,0.27,226.000000,,2013-01-28 22:22:00,
2013-01-28 15:32:00,31.0,23.0,-100.00,WSW,240,11.0,24.0,72,0.04,,,0.27,226.000000,,2013-01-28 22:32:00,
2013-01-28 15:42:00,31.0,23.0,-100.00,WSW,240,11.0,24.0,72,0.04,,,0.27,226.000000,,2013-01-28 22:42:00,
2013-01-28 15:52:00,31.0,23.0,-100.00,WSW,240,11.0,24.0,72,0.04,,,0.27,226.000000,,2013-01-28 22:52:00,
2013-01-28 16:22:00,27.0,21.0,-100.00,WSW,247,10.0,22.0,78,0.01,,,0.16,145.000000,,2013-01-28 23:22:00,
2013-01-28 16:32:00,27.0,21.0,-100.00,WSW,247,10.0,22.0,78,0.01,,,0.16,145.000000,,2013-01-28 23:32:00,
2013-01-28 16:42:00,27.0,21.0,-100.00,WSW,247,10.0,22.0,78,0.01,,,0.16,145.000000,,2013-01-28 23:42:00,
2013-01-28 16:52:00,27.0,21.0,-100.00,WSW,247,10.0,22.0,78,0.01,,,0.16,145.000000,,2013-01-28 23:52:00,
2013-01-28 17:22:00,24.0,19.0,-100.00,WSW,257,11.0,23.0,81,0.00,,,0.12,68.000000,,2013-01-29 00:22:00,
2013-01-28 17:32:00,24.0,19.0,-100.00,WSW,257,11.0,23.0,81,0.00,,,0.12,68.000000,,2013-01-29 00:32:00,
2013-01-28 17:42:00,24.0,19.0,-100.00,WSW,257,11.0,23.0,81,0.00,,,0.12,68.000000,,2013-01-29 00:42:00,
2013-01-28 17:52:00,24.0,19.0,-100.00,WSW,257,11.0,23.0,81,0.00,,,0.12,68.000000,,2013-01-29 00:52:00,
2013-01-28 18:22:00,22.0,16.0,-100.00,WSW,256,9.0,25.0,78,0.00,,,0.11,8.000000,,2013-01-29 01:22:00,
2013-01-28 18:32:00,22.0,16.0,-100.00,WSW,256,9.0,25.0,78,0.00,,,0.11,8.000000,,2013-01-29 01:32:00,
2013-01-28 18:42:00,22.0,16.0,-100.00,WSW,256,9.0,25.0,78,0.00,,,0.11,8.000000,,2013-01-29 01:42:00,
2013-01-28 18:52:00,22.0,16.0,-100.00,WSW,256,9.0,25.0,78,0.00,,,0.11,8.000000,,2013-01-29 01:52:00,
2013-01-28 19:21:00,21.0,16.0,-100.00,West,263,7.0,16.0,82,0.00,,,0.11,0.000000,,2013-01-29 02:21:00,
2013-01-28 19:32:00,21.0,16.0,-100.00,West,263,7.0,16.0,82,0.00,,,0.11,0.000000,,2013-01-29 02:32:00,
2013-01-28 19:41:00,21.0,16.0,-100.00,West,263,7.0,16.0,82,0.00,,,0.11,0.000000,,2013-01-29 02:41:00,
2013-01-28 19:52:00,21.0,16.0,-100.00,West,263,7.0,16.0,82,0.00,,,0.11,0.000000,,2013-01-29 02:52:00,
2013-01-28 20:21:00,21.0,17.0,-100.00,West,277,3.0,11.0,86,0.00,,,0.10,0.000000,,2013-01-29 03:21:00,
2013-01-28 20:32:00,21.0,17.0,-100.00,West,277,3.0,11.0,86,0.00,,,0.10,0.000000,,2013-01-29 03:32:00,
2013-01-28 20:42:00,21.0,17.0,-100.00,West,277,3.0,11.0,86,0.00,,,0.10,0.000000,,2013-01-29 03:42:00,
2013-01-28 20:52:00,21.0,17.0,-100.00,West,277,3.0,11.0,86,0.00,,,0.10,0.000000,,2013-01-29 03:52:00,
2013-01-28 21:21:00,21.0,18.0,-100.00,SSW,196,6.0,10.0,88,0.00,,,0.10,0.000000,,2013-01-29 04:21:00,
2013-01-28 21:32:00,21.0,18.0,-100.00,SSW,196,6.0,10.0,88,0.00,,,0.10,0.000000,,2013-01-29 04:32:00,
2013-01-28 21:41:00,21.0,18.0,-100.00,SSW,196,6.0,10.0,88,0.00,,,0.10,0.000000,,2013-01-29 04:41:00,
2013-01-28 21:51:00,21.0,18.0,-100.00,SSW,196,6.0,10.0,88,0.00,,,0.10,0.000000,,2013-01-29 04:51:00,
2013-01-28 22:21:00,20.0,17.0,-100.00,SSW,213,4.0,14.0,88,0.00,,,0.10,0.000000,,2013-01-29 05:21:00,
2013-01-28 22:32:00,20.0,17.0,-100.00,SSW,213,4.0,14.0,88,0.00,,,0.10,0.000000,,2013-01-29 05:32:00,
2013-01-28 22:42:00,20.0,17.0,-100.00,SSW,213,4.0,14.0,88,0.00,,,0.10,0.000000,,2013-01-29 05:42:00,
2013-01-28 22:52:00,20.0,17.0,-100.00,SSW,213,4.0,14.0,88,0.00,,,0.10,0.000000,,2013-01-29 05:52:00,
2013-01-28 23:21:00,18.0,15.0,-100.00,NNE,22,2.0,7.0,86,0.00,,,-99.99,0.000000,,2013-01-29 06:21:00,
2013-01-28 23:31:00,18.0,15.0,-100.00,NNE,22,2.0,7.0,86,0.00,,,-99.99,0.000000,,2013-01-29 06:31:00,
2013-01-28 23:41:00,18.0,15.0,-100.00,NNE,22,2.0,7.0,86,0.00,,,-99.99,0.000000,,2013-01-29 06:41:00,
2013-01-28 23:52:00,18.0,15.0,-100.00,NNE,22,2.0,7.0,86,0.00,,,-99.99,0.000000,,2013-01-29 06:52:00,